Flag for Austria Weather past 2 weeks in Waidhofen an der Ybbs, Lower Austria, Austria

Now
61 °F

Cool.


Feels Like: 61 °F
Forecast: 48 / 72 °F
Wind: 3 mph from Northwest

Location: Amstetten

Current Time: Apr 26, 2015 at 11:10:13 AM

Latest Report: Apr 26, 2015 at 10:00 AM


Visibility: N/A

Pressure: 29.88 "Hg

Humidity: 69%

Dew point: 50 °F

Location of Waidhofen an der YbbsLocation

Historic Weather in Waidhofen an der Ybbs — Graph

°F

Waidhofen an der Ybbs temperature yesterday

Maximum temperature yesterday: 76 °F (at 4:00 PM)
Minimum temperature yesterday: 36 °F (at 6:00 AM)
Average temperature yesterday: 57 °F

Past Weeks' High & Low Weather Summary

 TemperatureHumidityPressure
High76 °F (Apr 25, 4:00 PM)100% (Apr 24, 7:00 AM)30.46 "Hg (Apr 24, 7:00 AM)
Low34 °F (Apr 19, 6:00 AM)24% (Apr 25, 5:00 PM)29.77 "Hg (Apr 25, 5:00 PM)
Average54 °F63%30.14 "Hg
* Reported Apr 11 9:00 AM — Apr 26 9:00 AM, Waidhofen an der Ybbs, Weather by CustomWeather, © 2015

Note: Actual official high and low records may vary slightly from our data, if they occured in-between our weather recording intervals... More about our weather records

Advertising

Waidhofen an der Ybbs weather history for previous 24 hours

 ConditionsComfort  
Time TempWeatherWind HumidityBarometerVisibility
9:00 AM
Sun, Apr 26
59 °FCool.3 mph74%29.89 "HgN/A
8:00 AM57 °FCool.2 mph79%29.89 "HgN/A
7:00 AM56 °FCool.1 mph82%29.89 "HgN/A
6:00 AM56 °FCool.1 mph80%29.87 "HgN/A
5:00 AM57 °FCool.1 mph77%29.86 "HgN/A
4:00 AM57 °FCool.3 mph75%29.86 "HgN/A
3:00 AM59 °FCool.3 mph70%29.86 "HgN/A
2:00 AM60 °FCool.2 mph63%29.86 "HgN/A
1:00 AM58 °FCool.1 mph66%29.85 "HgN/A
12:00 AM60 °FRefreshingly cool.1 mph58%29.84 "HgN/A
11:00 PM
Sat, Apr 25
60 °FRefreshingly cool.1 mph55%29.83 "HgN/A
10:00 PM60 °FRefreshingly cool.2 mph52%29.83 "HgN/A
9:00 PM62 °FRefreshingly cool.2 mph46%29.81 "HgN/A
8:00 PM65 °FMild.1 mph41%29.79 "HgN/A
7:00 PM70 °FMild.1 mph34%29.77 "HgN/A
6:00 PM74 °FMild.1 mph26%29.77 "HgN/A
5:00 PM76 °FMild.2 mph24%29.77 "HgN/A
4:00 PM76 °FMild.2 mph26%29.78 "HgN/A
3:00 PM74 °FMild.1 mph27%29.80 "HgN/A
2:00 PM71 °FMild.1 mph40%29.83 "HgN/A
1:00 PM68 °FMild.3 mph39%29.86 "HgN/A
12:00 PM65 °FMild.1 mph43%29.89 "HgN/A
11:00 AM61 °FRefreshingly cool.1 mph50%29.91 "HgN/A
Weather by CustomWeather, © 2015

See weather overviewHow to use our weather pages